Location: Eaton Estates
(41.3089°N, 82.0057°W)
Time: 12:54:20
(UTC+00:00)

Cosmos 2123 Rocket - Pass Details

Date: 21 October 2021
Orbit: 961 x 992 km, 82.9° (Epoch: 29 November)

Event Time Altitude Azimuth Distance (km) Brightness Sun altitude
Rises 00:56:30 0° 343° (NNW) 3,715 7.4 -26.5°
Reaches altitude 10° 00:59:14 10° 335° (NNW) 2,761 6.8 -27.0°
Maximum altitude 01:04:50 35° 273° (W) 1,553 5.5 -28.0°
Drops below altitude 10° 01:10:24 10° 210° (SSW) 2,731 6.5 -29.0°
Sets 01:13:07 0° 201° (SSW) 3,671 7.1 -29.5°
